Home > Weather > Brăila > Past weeks

Flag for Romania Weather for the Past 2 Weeks in Brăila, Romania

Now
45 °F

Fog.


Feels Like: 45 °F
Forecast: 41 / 56 °F
Wind: 2 mph from Northeast

Location: Galati

Current Time: Feb 13, 2016 at 7:31:21 PM

Latest Report: Feb 13, 2016 at 7:00 PM


Visibility: 0 mi

Pressure: 29.50 "Hg

Humidity: 100%

Dew point: 45 °F

Location of BrăilaLocation

Historic Weather in Brăila — Graph

°F

Brăila Temperature Yesterday

Maximum temperature yesterday: 50 °F (at 2:00 PM)
Minimum temperature yesterday: 35 °F (at 11:00 PM)
Average temperature yesterday: 42 °F

High & Low Weather Summary for the Past Weeks

 TemperatureHumidityPressure
High56 °F (Feb 3, 4:00 PM)100% (Jan 30, 8:00 AM)30.44 "Hg (Jan 30, 8:00 AM)
Low28 °F (Feb 7, 4:00 AM)41% (Feb 11, 2:00 PM)29.44 "Hg (Feb 11, 2:00 AM)
Average41 °F81%30.03 "Hg
* Reported Jan 29 6:00 PM — Feb 13 6:00 PM, Brăila, Weather by CustomWeather, © 2016

Note: Actual official high and low records may vary slightly from our data, if they occured in-between our weather recording intervals... More about our weather records

Advertising

Brăila Weather History for the Previous 24 Hours

 ConditionsComfort  
Time TempWeatherWind HumidityBarometerVisibility
6:00 PM
Sat, Feb 13
45 °FFog.2 mph100%29.54 "Hg0 mi
5:00 PM46 °FFog.1 mph100%29.55 "Hg0 mi
4:00 PM45 °FFog.1 mph100%29.57 "Hg0 mi
3:00 PM45 °FFog.2 mph100%29.59 "Hg0 mi
2:00 PM44 °FOvercast.2 mph100%29.62 "Hg1 mi
1:00 PM43 °FDrizzle. Overcast.2 mph100%29.65 "Hg1 mi
12:00 PM42 °FLight rain. Overcast.3 mph100%29.67 "Hg1 mi
11:00 AM42 °FLight rain. Overcast.2 mph100%29.71 "Hg1 mi
10:00 AM40 °FLight rain. Overcast.3 mph100%29.74 "Hg0 mi
8:00 AM37 °FFog.2 mph100%29.79 "Hg0 mi
7:00 AM36 °FFog.3 mph100%29.82 "Hg0 mi
6:00 AM36 °FFog.3 mph99%29.83 "Hg1 mi
3:00 AM34 °FPassing clouds.1 mph99%29.89 "Hg6 mi
2:00 AM33 °FPassing clouds.1 mph98%29.91 "Hg6 mi
11:00 PM
Fri, Feb 12
35 °FPassing clouds.1 mph97%29.96 "Hg6 mi
10:00 PM36 °FClear.1 mph92%29.97 "Hg6 mi
9:00 PM39 °FPassing clouds.2 mph87%29.98 "Hg6 mi
8:00 PM41 °FPassing clouds.2 mph80%29.98 "Hg12 mi
7:00 PM42 °FPassing clouds.2 mph73%29.97 "Hg12 mi
Weather by CustomWeather, © 2016

See weather overviewHow to use our weather pages